Regional Weather Roundup
Issued by NWS

Home | Current Version | Previous Version | Graphics & Text | Print | Product List | Glossary On
Versions: 1 2 3 4 5 6 7 8 9 10 11 12 13 14 15 16 17 18 19 20 21 22 23 24 25 26 27 28 29 30 31 32 33 34 35 36 37 38 39 40 41 42 43 44 45 46 47 48 49 50
000
ASUS43 KDTX 221701
RWRMI
MICHIGAN HOURLY REGIONAL WEATHER ROUNDUP
NATIONAL WEATHER SERVICE DETROIT/PONTIAC MI
100 PM EDT WED OCT 22 2014

NOTE: "FAIR" INDICATES FEW OR NO CLOUDS BELOW 12,000 FEET WITH NO
SIGNIFICANT WEATHER AND/OR OBSTRUCTION TO VISIBILITY.

MIZ047>049-052>055-059>063-066>070-074>076-081>083-221800-
SOUTHEAST LOWER MICHIGAN

CITY           SKY/WX    TMP DP  RH WIND       PRES   REMARKS
ADRIAN         CLOUDY    47  39  74 NE7G17    30.35S
ALMA           CLOUDY    46  39  74 NE8       30.38F
ANN ARBOR      CLOUDY    51  39  63 N7        30.33F
BAD AXE        PTSUNNY   50  42  74 N8        30.36F
CARO           CLOUDY    47  39  72 NE5       30.36F
DETROIT CITY   MOSUNNY   56  39  53 N12G20    30.33S
DETROIT        MOSUNNY   54  40  59 N8        30.33S
FLINT          CLOUDY    49  39  68 N8        30.37F
GROSSE ILE     SUNNY     54  41  62 N8        30.31S
HILLSDALE      CLOUDY    45  40  83 NE6       30.34F
HOWELL         CLOUDY    46  39  77 N3        30.35F

CITY           SKY/WX    TMP DP  RH WIND       PRES   REMARKS
JACKSON        CLOUDY    46  39  76 N7        30.35F
LAMBERTVILLE   CLOUDY    50  39  66 N3        30.33F
LANSING        CLOUDY    46  38  73 N7        30.37S
LAPEER         CLOUDY    48  38  67 N7        30.35S
MASON          CLOUDY    45  38  78 NE8       30.36F
MONROE         PTSUNNY   52  43  71 N9        30.31F
MT. CLEMENS    MOSUNNY   54  40  57 NE12      30.30S
PONTIAC        PTSUNNY   49  39  68 N10       30.32F
PORT HOPE        N/A     49  39  68 N6        30.35F
PORT HURON     PTSUNNY   52  43  71 N9G17     30.32F
TRI CITIES     CLOUDY    48  39  71 NE7       30.39S
TROY           PTSUNNY   54  40  59 N9        30.34S
SAGINAW HB     CLOUDY    48  41  76 N10       30.36F
$$
MIZ043>046-050>051-056>058-064>065-071>073-077>080-221800-
SOUTHWEST LOWER MICHIGAN

CITY           SKY/WX    TMP DP  RH WIND       PRES   REMARKS
BATTLE CREEK   CLOUDY    45  37  73 N5        30.38S
BENTON HARBOR  SUNNY     50  34  54 VRB3      30.37F
BIG RAPIDS     MOSUNNY   44  37  74 N5        30.38F
COLDWATER      CLOUDY    46  39  79 E5        30.36S
FREMONT        FAIR      46  32  58 E5        30.38F
HOLLAND        SUNNY     51  37  58 NE9       30.38F
GRAND RAPIDS   MOSUNNY   48  37  65 E8        30.39S
IONIA          CLOUDY    46  39  75 N5        30.37S
KALAMAZOO      PTSUNNY   45  37  73 E6        30.38F
LUDINGTON      SUNNY     47  36  66 CALM      30.39F
MARSHALL       CLOUDY    43  37  79 CALM      30.36S
MOUNT PLEASANT CLOUDY    45  37  71 CALM      30.38S
MUSKEGON       SUNNY     49  34  56 CALM      30.38F
SOUTH HAVEN    SUNNY     50  37  60 E5        30.37F
$$
MIZ016>042-221800-
NORTHERN LOWER MICHIGAN

CITY           SKY/WX    TMP DP  RH WIND       PRES   REMARKS
ALPENA         SUNNY     48  34  58 VRB5      30.39F
BEAVER ISLAND  SUNNY     46  34  62 E8        30.40F
BELLAIRE       SUNNY     42  31  66 CALM      30.41F
CADILLAC       CLOUDY    38  33  80 CALM      30.37F
CHARLEVOIX     SUNNY     44  35  68 E6        30.43F
FRANKFORT      SUNNY     46  32  58 CALM      30.39F
GAYLORD        SUNNY     41  31  67 CALM      30.38F
GRAYLING       CLOUDY    39  33  81 NE5       30.40F
HARBOR SPRINGS SUNNY     46  33  60 SE3       30.40F
HOUGHTON LAKE  CLOUDY    42  34  73 VRB5      30.39F
MANISTEE       SUNNY     45  30  57 E6        30.39F
OSCODA         CLOUDY    47  37  68 N6        30.38F
PELLSTON       SUNNY     46  34  62 VRB5      30.40F
ROGERS CITY    MOSUNNY   45  37  76 N6        30.41F
TRAVERSE CITY  MOSUNNY   43  32  65 SE9       30.40F
$$
MIZ007>008-015-221800-
EASTERN UPPER MICHIGAN

CITY           SKY/WX    TMP DP  RH WIND       PRES   REMARKS
KINROSS        SUNNY     45  34  65 CALM      30.40F
MACKINAC ISLAN SUNNY     43  33  68 E5        30.40F
NEWBERRY       SUNNY     45  34  65 SE3       30.38F
S. S. MARIE    SUNNY     44  30  57 CALM      30.40F
$$
MIZ004>006-011>014-085-221800-
CENTRAL UPPER MICHIGAN

CITY           SKY/WX    TMP DP  RH WIND       PRES   REMARKS
MANISTIQUE     CLOUDY    46  37  71 S6        30.39F
ESCANABA       CLOUDY    46  34  61 SE12      30.39S
MENOMINEE      SUNNY     46  36  66 SE9       30.38S
SAWYER-GWINN   PTSUNNY   41  37  87 S12       30.36S
$$
MIZ001>003-009>011-084-221800-
WESTERN UPPER MICHIGAN

CITY           SKY/WX    TMP DP  RH WIND       PRES   REMARKS
IRON MOUNTAIN  MOSUNNY   42  37  82 SE5       30.35F
HOUGHTON       SUNNY     46  32  58 SE12      30.29F
COPPER HARBOR    N/A     47  34  60 SW9       30.30F
IRONWOOD       SUNNY     52  32  46 S13       30.21F
$$

ABBREVIATIONS USED IN REMARKS
   TC - TEMPERATURE IN CELSIUS
  WCI - WIND CHILL INDEX
   HX - HEAT INDEX
  VSB - VISIBILITY




USA.gov is the U.S. government's official web portal to all federal, state and local government web resources and services.